Home   Weather   Flint   Past weeks

Flag for USA Past Weather in Flint, Michigan, USA — Yesterday and Last 2 Weeks

Now
68 °F

Sunny.


Feels Like: 68 °F
Forecast: 35 / 69 °F
Wind: 5 mph from North

Location: Bishop International Airport

Current Time: Apr 23, 2017 at 6:14:50 pm

Latest Report: Apr 23, 2017 at 4:53 pm


Visibility: 10 mi

Pressure: 30.04 "Hg

Humidity: 24%

Dew Point: 30 °F

Location of FlintLocation

Past Weather in Flint — Graph

°F

Flint Temperature Yesterday

Maximum temperature yesterday: 59 °F (at 2:53 pm)
Minimum temperature yesterday: 37 °F (at 1:53 am)
Average temperature yesterday: 47 °F

High & Low Weather Summary for the Past Weeks

 TemperatureHumidityPressure
High81 °F (Apr 15, 3:53 pm)97% (Apr 10, 11:53 pm)30.51 "Hg (Apr 10, 11:53 pm)
Low33 °F (Apr 23, 5:53 am)23% (Apr 23, 1:53 pm)29.74 "Hg (Apr 20, 5:00 pm)
Average54 °F65%30.08 "Hg
* Reported Apr 8 4:53 pm — Apr 23 4:53 pm, Flint, Weather by CustomWeather, © 2017

Note: Actual official high and low records may vary slightly from our data, if they occured in-between our weather recording intervals... More about our weather records

Advertising

Flint Weather History for the Previous 24 Hours

Scroll right to see more
 ConditionsComfort  
Time TempWeatherWind HumidityBarometerVisibility
4:53 pm
Sun, Apr 23
68 °FSunny.5 mph24%30.04 "Hg10 mi
3:53 pm67 °FSunny.5 mph25%30.05 "Hg10 mi
2:53 pm67 °FSunny.8 mph24%30.06 "Hg10 mi
1:53 pm65 °FSunny.9 mph23%30.08 "Hg10 mi
12:53 pm65 °FSunny.15 mph33%30.10 "Hg10 mi
11:53 am64 °FSunny.10 mph34%30.11 "Hg10 mi
10:53 am61 °FSunny.10 mph38%30.12 "Hg10 mi
9:53 am56 °FSunny.8 mph47%30.13 "Hg10 mi
8:53 am50 °FSunny.3 mph59%30.14 "Hg10 mi
7:53 am43 °FSunny.6 mph74%30.14 "Hg10 mi
6:53 am33 °FSunny.3 mph88%30.14 "Hg10 mi
5:53 am33 °FClear.3 mph92%30.12 "Hg10 mi
4:53 am34 °FClear.No wind92%30.12 "Hg10 mi
3:53 am36 °FClear.No wind89%30.11 "Hg10 mi
2:53 am37 °FClear.No wind89%30.13 "Hg10 mi
1:53 am36 °FClear.6 mph92%30.16 "Hg10 mi
12:53 am39 °FClear.No wind82%30.16 "Hg10 mi
11:53 pm
Sat, Apr 22
40 °FClear.No wind80%30.16 "Hg10 mi
10:53 pm40 °FClear.6 mph77%30.16 "Hg10 mi
9:53 pm43 °FClear.No wind65%30.15 "Hg10 mi
8:53 pm51 °FClear.3 mph39%30.13 "Hg10 mi
7:53 pm55 °FSunny.6 mph34%30.14 "Hg10 mi
6:53 pm58 °FSunny.5 mph32%30.14 "Hg10 mi
Weather by CustomWeather, © 2017

See weather overviewHow to use our weather pages